Location: Baia de Cri?
(46.1667°N, 22.7167°E)
Time: 21:33:04
(UTC+00:00)

Okean 1-7 - Pass Details

Date: 15 January 2026
Orbit: 566 x 588 km, 82.5° (Epoch: 10 February)

Event Time Altitude Azimuth Distance (km) Brightness Sun altitude
Rises 04:38:39 0° 354° (N) 2,781 6.2 -15.0°
Reaches altitude 10° 04:40:52 10° 359° (N) 1,881 5.4 -14.7°
Maximum altitude 04:44:57 56° 78° (ENE) 685 3.6 -14.0°
Drops below altitude 10° 04:49:01 10° 158° (SSE) 1,877 6.1 -13.3°
Sets 04:51:14 0° 162° (SSE) 2,774 6.9 -12.9°
